Flag for Kazakhstan Weather past 2 weeks in Almaty, Kazakhstan

Now
75 °F

Clear.


Feels Like: 77 °F
Forecast: 48 / 80 °F
Wind: 3 mph from North

Location: Almaty Airport

Current Time: May 29, 2015 at 10:34:14 AM

Latest Report: May 29, 2015 at 10:00 AM


Visibility: N/A

Pressure: 29.95 "Hg

Humidity: 29%

Dew point: 41 °F

Location of AlmatyLocation

Historic Weather in Almaty — Graph

°F

Almaty temperature yesterday

Maximum temperature yesterday: 81 °F (at 3:30 PM)
Minimum temperature yesterday: 48 °F (at 5:30 AM)
Average temperature yesterday: 67 °F

Past Weeks' High & Low Weather Summary

 TemperatureHumidityPressure
High86 °F (May 16, 2:00 PM)94% (May 17, 12:30 AM)30.21 "Hg (May 17, 12:30 AM)
Low48 °F (May 28, 5:30 AM)20% (May 14, 4:00 PM)29.65 "Hg (May 16, 1:30 PM)
Average65 °F55%30.00 "Hg
* Reported May 14 9:30 AM — May 29 9:00 AM, Almaty, Weather by CustomWeather, © 2015

Note: Actual official high and low records may vary slightly from our data, if they occured in-between our weather recording intervals... More about our weather records

Advertising

Almaty weather history for previous 24 hours

 ConditionsComfort  
Time TempWeatherWind HumidityBarometerVisibility
9:00 AM
Fri, May 29
72 °FClear.3 mph36%29.95 "HgN/A
8:30 AM70 °FClear.1 mph35%29.95 "HgN/A
8:00 AM68 °FClear.No wind46%29.95 "HgN/A
7:30 AM64 °FClear.1 mph56%29.92 "HgN/A
7:00 AM63 °FClear.1 mph59%29.92 "HgN/A
6:30 AM57 °FClear.3 mph67%29.92 "HgN/A
6:00 AM54 °FClear.6 mph72%29.92 "HgN/A
5:30 AM52 °FClear.3 mph77%29.92 "HgN/A
5:00 AM54 °FClear.6 mph72%29.92 "HgN/A
4:00 AM55 °FClear.1 mph67%29.92 "HgN/A
3:30 AM54 °FClear.6 mph72%29.92 "HgN/A
3:00 AM55 °FClear.3 mph72%29.92 "HgN/A
2:30 AM57 °FClear.3 mph67%29.92 "HgN/A
2:00 AM57 °FClear.6 mph67%29.89 "HgN/A
1:30 AM57 °FClear.6 mph67%29.92 "HgN/A
1:00 AM59 °FPassing clouds.6 mph63%29.92 "HgN/A
12:30 AM61 °FPassing clouds.8 mph59%29.92 "HgN/A
12:00 AM59 °FPassing clouds.8 mph63%29.92 "HgN/A
11:30 PM
Thu, May 28
61 °FPassing clouds.3 mph59%29.89 "HgN/A
11:00 PM61 °FPassing clouds.6 mph59%29.89 "HgN/A
10:30 PM64 °FPassing clouds.6 mph52%29.89 "HgN/A
10:00 PM64 °FPassing clouds.3 mph49%29.89 "HgN/A
9:30 PM66 °FPassing clouds.6 mph46%29.89 "HgN/A
9:00 PM68 °FPassing clouds.3 mph49%29.89 "Hg3 mi
8:30 PM72 °FPassing clouds.6 mph44%29.89 "Hg3 mi
8:00 PM75 °FPartly sunny.3 mph34%29.89 "HgN/A
7:30 PM77 °FScattered clouds.3 mph32%29.89 "HgN/A
7:00 PM79 °FScattered clouds.3 mph30%29.89 "HgN/A
6:30 PM79 °FScattered clouds.6 mph26%29.89 "HgN/A
6:00 PM79 °FScattered clouds.6 mph24%29.86 "HgN/A
5:30 PM81 °FScattered clouds.6 mph24%29.86 "HgN/A
5:00 PM81 °FScattered clouds.3 mph20%29.89 "HgN/A
4:30 PM81 °FScattered clouds.6 mph21%29.89 "HgN/A
4:00 PM81 °FScattered clouds.6 mph23%29.89 "HgN/A
3:30 PM81 °FScattered clouds.3 mph23%29.89 "HgN/A
3:00 PM79 °FScattered clouds.6 mph26%29.89 "HgN/A
2:30 PM79 °FScattered clouds.6 mph24%29.89 "HgN/A
2:00 PM79 °FScattered clouds.6 mph24%29.89 "HgN/A
1:30 PM77 °FScattered clouds.8 mph30%29.92 "HgN/A
1:00 PM77 °FScattered clouds.8 mph39%29.92 "HgN/A
12:30 PM75 °FScattered clouds.8 mph34%29.92 "HgN/A
12:00 PM75 °FScattered clouds.6 mph36%29.92 "HgN/A
11:30 AM73 °FPassing clouds.6 mph33%29.95 "HgN/A
11:00 AM73 °FPassing clouds.3 mph31%29.95 "HgN/A
10:30 AM72 °FPassing clouds.3 mph31%29.95 "HgN/A
10:00 AM72 °FClear.3 mph33%29.95 "HgN/A
Weather by CustomWeather, © 2015

See weather overviewHow to use our weather pages